IRIS R/B

Satellite information

Favourite Embed

Satellite Type and Status

ROCKET BODYIN ORBIT

Key statistics

Satellite IRIS R/B at a glance.

Uptime

12050

Days in orbit

Revolutions

≈ 15.4

Per day

Orbit

LEO

Low Earth Orbit

Inclination

41.1

Latest

Satellite identification and parameters

Extended collection of information and parameters for IRIS R/B.

Object identification

Identified? True

Debris? False

Object name: IRIS R/B

International designator: 1992-070D

Object number (NORAD): 22196

Object ID (CCSDS): 22196

Country: ITALY (IT)

Current information (Y/N): Y

RCS size: LARGE

Orbital parameters

Period: 93.656 minutes

Inclination: 41.0941 deg

SMA: 6831.508 km

Apoapsis: 676.596 km

Periapsis: 230.15 km

RAAN: 115.4382 deg

Eccentricy: 0.03267555

Argument of periapsis: 158.0723 deg

Mean anomaly: 203.4452 deg

Mean motion: 15.37545251 rev/day

Mean motion (dot): 0.00408842 rev/day2

B* drag term: 0.0014528163 1/REarth

Two-line elements (TLE)

Creation date: Oct. 19, 2025, 2:20 a.m.

Reference frame: TEME

Reference center: EARTH

Epoch: Oct. 18, 2025, 9:16 p.m. UTC

TLE line 0: 0 IRIS R/B

TLE line 1: 1 22196U 92070D 25291.88629677 .00408842 44635-4 14528-2 0 9994

TLE line 2: 2 22196 41.0941 115.4382 0326756 158.0723 203.4452 15.37545251357474

Live tracking on map

Real-time ground track for satellite IRIS R/B.

In-orbit conjunctions

A list of the most updated potential collisions computed for object IRIS R/B.

Target Orbit TCA Probability of collision Miss distance Type
CZ-6A DEB SSO 2025-05-05 15:50:25 0.0002253127 218.0 (m) DEBRIS
CZ-4 DEB SSO 2025-03-12 12:16:00 0.0001302579 884.0 (m) DEBRIS

Associated space launch

STS-52 was a Space Transportation System (NASA Space Shuttle) mission using orbiter Columbia, and was launched on 22 October 1992.

IRIS R/B was lifted into orbit during the mission ‘Space Shuttle Columbia / OV-102 | STS-52’, on board a Space Shuttle space rocket.

The launch took place on Oct. 22, 1992, 5:09 p.m. from Launch Complex 39B.

For more information about the launch, click the button.

Launch to space Space Shuttle Columbia / OV-102 | STS-52
Space Shuttle Columbia / OV-102 | STS-52

Agency: N/A

Status: Launch Successful

Launch date: Oct. 22, 1992, 5:09 p.m. UTC

Rocket: Space Shuttle

Launch pad: Launch Complex 39B

Location: Kennedy Space Center, FL, USA

...

Latest news about this satellite

There are no fresh news available about this satellite. Check back as we update our databases every day.


Newsletter sign-up

Weekly statistics, charts and insights to help you stay on top of the space industry.